TimePST,TemperatureF,Dew PointF,Humidity,Sea Level PressureIn,VisibilityMPH,Wind Direction,Wind SpeedMPH,Gust SpeedMPH,PrecipitationIn,Events,Conditions,WindDirDegrees,DateUTC
12:00 AM,45.7,39.6,79,30.21,-9999.0,West,2.3,-,N/A,,Unknown,280,2013-02-13 08:00:00
1:00 AM,43.7,40.1,87,30.22,-9999.0,NNW,2.3,-,N/A,,Unknown,340,2013-02-13 09:00:00
2:00 AM,43.0,40.3,90,30.26,-9999.0,NW,2.3,-,N/A,,Unknown,310,2013-02-13 10:00:00
3:00 AM,44.1,41.4,90,30.27,-9999.0,SW,3.5,-,N/A,,Unknown,230,2013-02-13 11:00:00
4:00 AM,45,36,61,30.28,,WSW,4.6,,,,,250,2013-02-13 12:00:00
4:00 AM,44.6,36.0,72,30.28,-9999.0,WSW,4.6,-,N/A,,Unknown,250,2013-02-13 12:00:00
5:00 AM,44.2,36.0,73,30.30,-9999.0,WNW,1.2,-,N/A,,Unknown,290,2013-02-13 13:00:00
6:00 AM,44.1,36.5,75,30.31,-9999.0,WNW,2.3,-,N/A,,Unknown,290,2013-02-13 14:00:00
7:00 AM,43.7,38.1,81,30.32,-9999.0,West,2.3,-,N/A,,Unknown,280,2013-02-13 15:00:00
8:00 AM,41.7,37.4,85,30.35,-9999.0,Calm,Calm,-,N/A,,Unknown,0,2013-02-13 16:00:00
9:00 AM,42.4,36.7,80,30.36,-9999.0,South,3.5,-,N/A,,Unknown,180,2013-02-13 17:00:00
10:00 AM,44,37,67,30.38,,NW,3.5,,,,,310,2013-02-13 18:00:00
10:00 AM,44.2,36.7,75,30.38,-9999.0,NW,3.5,-,N/A,,Unknown,310,2013-02-13 18:00:00
11:00 AM,43.9,37.2,77,30.39,-9999.0,West,10.4,-,N/A,,Unknown,270,2013-02-13 19:00:00
12:00 PM,44.6,38.5,79,30.40,-9999.0,WNW,8.1,-,N/A,,Unknown,290,2013-02-13 20:00:00
1:00 PM,45.0,40.1,83,30.39,-9999.0,NW,8.1,-,N/A,,Unknown,320,2013-02-13 21:00:00
2:00 PM,45.1,39.7,81,30.39,-9999.0,NW,4.6,-,N/A,,Unknown,310,2013-02-13 22:00:00
3:00 PM,45.3,40.3,83,30.39,-9999.0,NW,3.5,-,N/A,,Unknown,320,2013-02-13 23:00:00
4:00 PM,45,41,79,30.40,,WNW,4.6,,,,,290,2013-02-14 00:00:00
4:00 PM,44.8,40.6,85,30.40,-9999.0,WNW,4.6,-,N/A,,Unknown,290,2013-02-14 00:00:00
5:00 PM,45.3,39.4,80,30.40,-9999.0,WNW,3.5,-,N/A,,Unknown,290,2013-02-14 01:00:00
6:00 PM,45.1,39.0,79,30.40,-9999.0,West,3.5,-,N/A,,Unknown,270,2013-02-14 02:00:00
7:00 PM,45.1,37.9,76,30.41,-9999.0,West,4.6,-,N/A,,Unknown,260,2013-02-14 03:00:00
8:00 PM,44.8,38.7,79,30.42,-9999.0,SW,2.3,-,N/A,,Unknown,220,2013-02-14 04:00:00
9:00 PM,44.1,38.8,82,30.43,-9999.0,North,1.2,-,N/A,,Unknown,350,2013-02-14 05:00:00
10:00 PM,45,38,70,30.44,,NW,1.2,,,,,310,2013-02-14 06:00:00
10:00 PM,44.8,38.5,79,30.44,-9999.0,NW,1.2,-,N/A,,Unknown,310,2013-02-14 06:00:00
11:00 PM,43.5,38.8,84,30.45,-9999.0,West,1.2,-,N/A,,Unknown,260,2013-02-14 07:00:00